M0TJX-1 Weather Reports


time (UTC)temp
C
wind
direction
speed
KPH
gust
KPH
rain 1hr
cm
rain 24hr
cm
rain mn
cm
humidity
%
barometer
mb
20260502184320 12 230 0.0 1.6 0.30 1.22 1.22 95 1011.2
20260502182820 12 21 0.0 1.6 0.20 1.12 1.12 95 1011.3
20260502181320 12 21 0.0 1.6 0.10 1.02 1.02 94 1011.2
20260502164320 13 9 1.6 6.4 0.51 0.84 0.84 91 1012.2
20260502162820 13 148 0.0 0.0 0.53 0.74 0.74 89 1012.4
20260502161320 13 148 0.0 1.6 0.61 0.64 0.64 88 1012.7
20260502151320 17 136 1.6 3.2 0.03 0.03 0.03 72 1013.2
20260502122820 18 130 3.2 4.8 0.00 0.00 0.00 60 1015.0
20260502121320 18 127 1.6 3.2 0.00 0.00 0.00 61 1015.5
20260502115820 18 35 1.6 3.2 0.00 0.00 0.00 61 1015.4
20260502114320 18 121 1.6 6.4 0.00 0.00 0.00 59 1015.6
20260502112820 18 216 1.6 4.8 0.00 0.00 0.00 61 1016.0
20260502111320 17 123 1.6 6.4 0.00 0.00 0.00 63 1016.2
20260502105820 17 122 1.6 8.0 0.00 0.00 0.00 65 1016.3
20260502104320 17 254 1.6 4.8 0.00 0.00 0.00 66 1016.5
20260502102820 17 128 3.2 8.0 0.00 0.00 0.00 64 1016.7
20260502101320 17 150 1.6 4.8 0.00 0.00 0.00 64 1016.7
20260502091320 15 22 3.2 6.4 0.00 0.00 0.00 76 1017.3
20260502071320 10 207 0.0 1.6 0.00 0.00 0.00 95 1017.9
20260502065820 10 207 0.0 1.6 0.00 0.00 0.00 95 1017.8
20260502064320 9 207 0.0 0.0 0.00 0.00 0.00 95 1017.9
20260502062820 9 207 0.0 1.6 0.00 0.00 0.00 95 1017.8
20260502061320 8 207 0.0 1.6 0.00 0.00 0.00 95 1017.9
20260502055820 8 207 0.0 3.2 0.00 0.00 0.00 95 1018.0
20260502054320 8 207 0.0 0.0 0.00 0.00 0.00 95 1017.9
20260502052820 8 207 0.0 0.0 0.00 0.00 0.00 95 1017.8
20260502051320 7 207 0.0 0.0 0.00 0.00 0.00 94 1017.7
20260502045820 7 207 0.0 0.0 0.00 0.00 0.00 94 1017.8
20260502044320 7 207 0.0 0.0 0.00 0.00 0.00 94 1017.8
20260502042821 7 207 0.0 0.0 0.00 0.00 0.00 93 1017.8
20260502041321 7 207 0.0 0.0 0.00 0.00 0.00 93 1017.8
20260502035821 7 207 0.0 0.0 0.00 0.00 0.00 93 1018.3
20260502034321 7 207 0.0 0.0 0.00 0.00 0.00 93 1018.4
20260502032821 7 207 0.0 0.0 0.00 0.00 0.00 92 1018.3
20260502031321 7 207 0.0 0.0 0.00 0.00 0.00 92 1018.3
20260502025821 7 207 0.0 0.0 0.00 0.00 0.00 92 1018.3
20260502024321 7 207 0.0 0.0 0.00 0.00 0.00 91 1018.5
20260502022821 7 207 0.0 0.0 0.00 0.00 0.00 91 1018.5
20260502021321 7 207 0.0 0.0 0.00 0.00 0.00 91 1018.7
20260502015821 8 207 0.0 0.0 0.00 0.00 0.00 91 1018.7
20260502014321 8 207 0.0 0.0 0.00 0.00 0.00 91 1018.9
20260502012821 8 207 0.0 0.0 0.00 0.00 0.00 91 1019.0
20260502011321 8 207 0.0 0.0 0.00 0.00 0.00 90 1019.0
20260502005821 8 207 0.0 0.0 0.00 0.00 0.00 90 1019.1
20260502004321 8 207 0.0 0.0 0.00 0.00 0.00 90 1019.2
20260502002821 8 207 0.0 0.0 0.00 0.00 0.00 89 1019.4
20260502001321 9 207 0.0 0.0 0.00 0.00 0.00 89 1019.4
20260501235821 9 207 0.0 0.0 0.00 0.00 0.00 88 1019.6
20260501234321 9 207 0.0 0.0 0.00 0.00 0.00 88 1019.8
20260501232821 10 207 0.0 0.0 0.00 0.00 0.00 88 1019.9
20260501231321 10 207 0.0 0.0 0.00 0.00 0.00 87 1020.0
20260501225821 10 207 0.0 0.0 0.00 0.00 0.00 87 1020.1
20260501224321 10 207 0.0 0.0 0.00 0.00 0.00 86 1020.0
20260501222821 10 207 0.0 0.0 0.00 0.00 0.00 86 1019.8
20260501221321 10 207 0.0 0.0 0.00 0.00 0.00 85 1019.8
20260501215821 10 207 0.0 0.0 0.00 0.00 0.00 84 1019.7
20260501214321 11 207 0.0 0.0 0.00 0.00 0.00 84 1019.7
20260501212821 11 207 0.0 0.0 0.00 0.00 0.00 83 1019.7
20260501211321 11 207 0.0 0.0 0.00 0.00 0.00 82 1019.7
20260501205821 11 207 0.0 0.0 0.00 0.00 0.00 81 1019.8
20260501204321 12 207 0.0 0.0 0.00 0.00 0.00 80 1019.8
20260501202821 12 207 0.0 0.0 0.00 0.00 0.00 79 1019.8
20260501201321 12 207 0.0 1.6 0.00 0.00 0.00 79 1019.5
20260501195821 13 213 0.0 0.0 0.00 0.00 0.00 78 1019.6
20260501194321 13 213 0.0 1.6 0.00 0.00 0.00 77 1019.6
20260501192821 13 241 0.0 3.2 0.00 0.00 0.00 77 1019.5
20260501191321 14 225 0.0 3.2 0.00 0.00 0.00 77 1019.6
20260501185821 14 235 0.0 1.6 0.00 0.00 0.00 76 1019.5